Theta_e
316 317 315 316 318 319 321 322 324 322 323 322 316 319 318 317 320 317 318 317 317 319 318 320 319 320 321 320 321 325 327 329 329 329 335 335 334 336 333 332 330 328 330 330 331 331 331 331 331 330 329 327 324 323 323 322 321 318 320 322 320 319 317 318 318 318 319 317 318 316 315 319 321 324 327 328 329 330 328 326 322 310 305 305 310 319 321 319 314 314 314 312 313 316 316 312 310
317 316 315 316 318 320 321 323 330 327 323 318 314 320 317 317 319 319 321 318 318 321 321 322 320 322 322 321 322 322 325 327 327 331 335 334 335 335 333 333 331 330 330 330 330 330 330 330 330 329 329 326 323 323 323 323 322 319 320 322 322 321 319 320 320 320 320 319 319 317 316 318 321 325 328 329 330 332 329 327 322 308 305 307 311 320 321 316 313 314 317 317 319 319 314 314 314
316 316 314 317 320 321 323 323 328 327 321 317 318 320 317 318 320 321 319 318 321 322 321 320 320 322 322 324 326 323 326 328 330 334 335 335 335 334 334 333 332 332 331 330 330 329 329 329 329 329 328 325 323 323 323 324 323 319 320 323 324 323 322 323 323 322 321 321 321 318 317 316 319 326 329 330 331 331 329 327 320 307 305 309 312 317 318 317 316 316 319 320 320 317 313 315 317
316 315 316 319 323 324 329 330 330 327 321 319 320 320 321 323 322 320 316 318 322 321 319 319 323 322 323 328 327 326 330 331 334 335 336 335 334 334 334 333 333 333 331 330 329 330 330 329 328 329 328 326 324 323 323 323 322 320 320 324 325 325 324 324 324 323 322 322 322 320 317 314 317 325 329 330 330 329 328 327 317 306 307 308 312 316 316 319 320 321 321 323 322 318 316 318 319
315 315 318 320 324 325 328 327 327 324 318 320 319 319 327 327 322 318 316 318 319 318 319 322 326 324 323 326 324 324 329 332 334 335 335 334 334 334 334 333 332 332 332 331 330 330 330 329 328 327 327 327 325 322 322 322 321 320 320 323 326 326 325 324 324 323 322 321 321 321 317 314 314 318 323 326 328 327 325 323 312 306 307 307 314 319 319 321 322 323 323 324 324 322 322 323 322
315 316 319 320 321 321 323 319 319 322 319 322 321 320 326 322 317 316 316 317 316 318 319 321 325 324 324 326 325 324 326 331 332 333 334 335 335 334 334 334 333 332 333 332 331 331 331 330 327 326 326 326 325 322 322 321 320 320 319 322 325 325 325 324 323 323 323 321 320 320 318 314 311 310 312 318 323 322 321 320 312 306 306 310 318 322 321 322 322 323 323 323 322 323 324 323 323
315 318 320 321 321 318 326 324 320 322 317 316 322 323 321 316 315 316 316 317 317 317 318 320 322 323 326 326 325 324 325 328 329 332 334 335 336 335 335 335 334 333 332 333 332 331 332 329 328 328 327 325 324 322 322 321 320 319 319 321 324 325 325 324 322 322 323 322 320 319 318 313 310 307 307 312 316 317 317 316 309 306 308 315 321 322 322 322 321 321 322 322 320 319 321 322 322
317 320 321 326 327 322 326 323 320 323 314 310 316 321 318 315 315 315 316 317 317 317 318 321 321 321 324 323 324 325 323 325 328 331 334 335 336 336 334 335 335 333 332 333 333 333 332 329 329 329 327 326 324 323 323 321 320 320 321 322 324 325 324 323 322 321 322 324 321 318 317 313 309 307 306 307 310 311 310 308 306 310 313 317 319 320 321 319 318 317 317 318 317 317 318 319 320
318 321 321 323 329 329 327 317 316 319 316 315 315 317 316 316 315 314 315 315 316 317 319 321 319 318 321 321 324 325 323 325 328 330 334 334 334 335 334 335 334 334 333 332 333 333 333 330 329 330 328 327 325 324 323 322 321 321 323 323 323 323 323 323 322 321 322 324 321 318 317 314 311 308 306 305 306 306 305 307 311 315 317 317 317 317 318 316 314 313 314 314 314 315 317 318 319
319 322 319 324 330 325 320 316 317 318 316 317 315 316 317 316 315 314 315 315 315 316 317 318 316 317 321 322 324 325 324 326 327 329 334 334 333 334 335 335 334 334 333 333 334 334 333 331 330 330 330 328 326 325 324 323 322 322 324 324 322 321 321 322 322 321 321 324 323 319 318 316 314 312 309 307 307 308 309 312 316 317 318 319 319 318 318 316 313 313 314 314 315 315 316 318 319
320 319 318 327 331 320 318 319 320 321 316 315 314 315 316 316 315 313 314 315 315 316 316 316 317 319 320 322 323 323 325 326 326 328 331 333 333 334 334 334 334 334 333 333 334 335 334 333 331 331 331 330 327 326 325 324 323 323 324 324 322 321 321 322 322 321 321 322 323 320 318 317 315 314 313 312 312 313 315 317 318 319 319 320 320 320 319 316 314 313 313 314 315 316 317 318 319
318 322 331 334 328 323 325 322 319 321 316 316 317 315 316 315 314 314 314 315 315 316 316 317 318 319 320 321 321 321 323 325 328 330 329 331 333 333 333 332 333 334 335 334 334 335 335 333 332 332 332 331 329 327 326 325 324 323 324 325 322 321 321 322 322 321 320 320 321 320 318 318 316 315 316 316 316 317 318 319 319 319 320 320 320 320 319 317 315 313 313 313 314 315 317 318 320
318 323 335 327 321 325 324 320 318 320 317 317 316 314 316 314 314 315 314 315 315 316 316 317 318 318 321 320 319 319 320 324 329 331 329 330 331 331 332 331 332 334 335 336 335 335 335 335 333 332 332 333 332 329 327 326 325 324 325 326 324 321 321 323 322 322 322 320 319 318 318 318 317 317 318 319 318 319 319 320 320 320 321 321 320 320 319 318 316 315 313 312 312 313 315 316 318
320 322 330 323 318 322 321 319 317 317 319 319 315 313 316 314 315 316 315 316 315 316 316 317 318 318 320 320 318 316 316 321 326 329 329 331 331 330 331 331 332 332 334 335 336 336 335 335 334 333 332 333 333 331 329 327 326 324 325 327 325 323 322 323 323 323 323 322 319 317 317 318 318 318 319 320 319 319 320 321 321 322 322 322 321 320 319 318 317 315 314 312 311 312 313 314 315
320 319 330 329 318 317 318 319 318 318 320 319 314 313 315 314 315 315 315 318 316 315 316 317 319 318 319 320 319 314 313 317 321 325 329 332 332 331 331 331 331 331 332 334 336 336 335 335 335 334 333 333 333 333 332 329 327 325 325 327 326 325 324 323 324 324 324 323 320 317 317 318 319 319 319 321 320 320 321 322 322 322 323 322 322 321 320 318 316 315 314 312 311 312 313 313 313
320 318 327 326 317 316 317 317 318 319 318 314 314 314 314 314 314 315 315 316 316 315 316 317 318 318 317 319 318 313 312 314 317 321 327 332 333 332 331 331 332 331 331 333 334 335 335 335 335 334 333 333 334 334 334 332 329 326 325 326 327 326 325 324 324 324 324 323 320 318 318 318 319 320 320 320 321 321 322 322 322 323 323 323 322 321 320 318 317 315 314 312 310 312 312 312 312
317 321 329 323 318 318 317 318 318 320 320 313 312 313 314 314 313 314 315 315 315 315 315 316 317 317 317 318 318 314 313 313 315 317 324 330 331 331 331 330 331 331 330 331 333 334 335 334 334 334 334 334 334 334 334 334 332 327 325 326 327 327 326 325 324 324 324 324 322 320 319 317 318 319 320 320 320 321 322 322 322 322 323 323 322 321 320 318 317 316 315 313 310 311 312 311 311
319 331 331 321 323 321 320 322 315 316 320 313 311 314 315 316 314 314 315 315 315 315 315 316 316 317 317 318 318 316 313 313 314 315 320 325 327 328 327 327 327 327 324 326 329 332 333 333 333 334 335 334 334 335 334 334 334 330 327 326 327 328 327 326 325 324 324 324 323 322 320 319 317 318 320 321 320 320 321 321 321 322 322 322 322 321 320 318 317 317 315 313 310 310 311 311 311
320 329 325 325 332 321 316 318 312 313 316 312 312 314 314 316 315 314 316 315 314 315 315 315 316 317 317 317 317 317 313 313 313 313 316 319 321 321 321 322 322 322 320 320 323 327 330 331 332 333 334 335 334 334 334 334 334 333 329 327 327 328 328 327 326 325 324 324 324 323 322 321 318 317 318 320 321 321 321 321 321 321 322 322 322 321 320 319 318 317 316 314 311 309 310 310 311
317 321 323 330 328 316 313 314 312 314 314 312 312 312 314 314 315 315 315 314 314 315 315 315 316 316 317 316 316 316 314 313 314 314 314 315 316 317 317 318 317 318 317 318 320 322 325 327 330 331 332 334 334 334 334 334 334 334 332 329 328 328 328 328 328 326 325 325 325 325 324 324 321 317 318 319 321 322 321 321 321 321 322 322 322 321 320 320 319 318 317 314 312 310 309 310 310
315 320 327 324 315 314 315 313 313 314 313 313 312 313 313 313 315 314 314 315 315 314 315 316 316 315 316 315 315 316 314 314 314 314 314 314 315 316 315 315 315 316 317 319 320 319 319 322 326 328 330 332 333 334 334 334 334 334 334 332 330 329 329 328 328 328 326 325 325 326 325 325 323 319 318 318 320 321 322 322 322 322 322 322 322 322 321 321 320 318 318 315 313 311 309 309 310
315 316 318 314 311 315 315 313 315 314 313 313 311 313 314 314 314 314 314 318 318 315 315 316 316 315 315 315 315 315 315 314 314 314 314 314 315 315 315 315 316 317 318 318 318 317 317 319 322 324 326 329 331 332 333 334 334 334 334 333 332 330 330 329 329 328 327 326 326 326 326 326 325 322 319 319 319 320 321 322 323 323 323 322 322 323 322 322 321 319 319 316 314 311 309 309 310
317 315 312 312 312 314 314 314 314 313 313 313 311 313 314 313 314 313 313 316 316 314 315 316 315 315 315 315 315 315 315 314 314 314 314 314 314 314 315 314 315 315 316 316 316 317 317 317 320 321 323 325 328 329 331 333 333 333 333 333 333 332 331 330 330 329 328 327 327 327 326 326 326 325 322 321 322 321 322 322 322 323 324 323 322 323 323 322 322 321 320 317 315 312 309 309 310
319 318 312 313 313 313 314 314 313 313 314 313 313 314 313 313 314 313 312 314 314 314 315 316 315 315 315 315 314 314 315 315 314 314 314 314 314 314 314 314 315 315 315 315 315 316 317 317 318 318 319 321 324 326 328 330 332 333 333 333 333 332 332 332 331 330 329 328 327 327 327 327 327 326 325 324 325 325 325 324 323 323 324 324 323 323 323 323 323 322 322 319 316 313 310 309 310
318 318 312 313 314 313 314 314 313 313 314 314 314 314 314 314 313 312 313 315 315 314 316 316 316 315 315 315 314 314 314 314 314 314 314 314 315 315 315 315 315 315 315 315 315 315 315 316 317 316 316 317 321 324 325 327 329 330 332 331 331 332 332 331 332 331 331 330 329 328 328 327 327 327 326 326 326 327 326 326 325 323 324 324 324 324 323 323 323 323 323 321 317 314 310 309 310
315 314 313 312 313 313 313 314 314 314 314 314 314 314 314 313 313 314 315 315 315 315 315 316 316 316 316 315 315 315 315 315 314 314 315 314 315 315 314 314 315 315 315 315 315 315 315 316 316 316 315 315 317 321 322 324 326 328 329 330 330 331 331 331 331 331 331 331 331 330 329 328 328 328 327 327 327 327 327 326 326 324 324 325 325 324 324 323 323 323 323 322 318 315 312 309 311
314 312 312 313 312 313 313 313 314 314 314 314 315 315 314 313 314 316 316 315 315 315 315 316 316 316 316 316 315 316 315 316 315 314 314 314 315 315 315 314 314 314 314 315 314 314 315 315 315 315 316 316 315 317 319 320 324 327 327 329 330 329 330 330 330 331 330 330 331 331 331 330 329 329 328 328 328 327 327 327 326 325 325 325 325 324 324 323 324 323 323 322 319 316 313 310 311
313 313 314 313 312 313 313 314 313 314 314 313 315 313 313 314 314 316 315 315 315 315 315 315 315 316 315 316 316 316 316 316 316 315 315 314 315 315 315 315 314 315 314 315 314 314 314 314 314 315 315 316 315 317 318 318 320 323 323 326 329 330 329 330 330 329 329 328 330 331 331 330 330 330 328 328 328 327 327 327 326 326 326 325 325 325 324 324 324 324 323 322 320 317 314 311 311
313 314 317 317 318 317 313 313 313 314 315 314 313 313 314 316 316 316 315 315 316 315 315 315 315 315 315 315 315 315 316 316 316 316 315 315 315 315 315 315 315 315 315 314 314 314 315 314 314 315 315 315 315 316 317 318 317 320 326 326 325 328 328 329 331 329 328 328 328 329 330 330 331 330 329 328 328 327 327 327 326 326 326 326 326 326 325 324 324 324 323 323 321 318 314 311 311
315 314 319 321 320 319 313 311 314 314 314 314 312 314 320 321 316 314 315 315 315 315 315 315 315 315 315 315 315 316 315 316 316 315 316 316 315 315 315 315 315 315 315 314 314 314 314 314 314 315 315 316 316 316 316 317 316 318 327 326 323 329 330 329 330 329 329 330 328 328 328 329 330 331 329 328 327 326 326 327 327 326 326 326 326 326 325 325 324 324 323 323 322 319 315 312 311
317 313 320 323 316 320 317 311 313 315 314 314 313 314 321 323 315 313 315 314 314 315 315 315 316 316 316 316 315 316 315 315 316 315 316 316 315 315 315 315 315 315 315 315 315 314 314 314 315 315 316 316 316 318 316 317 317 315 321 322 321 328 330 327 329 330 329 328 329 330 330 329 330 330 330 329 327 326 326 326 326 326 326 326 326 326 326 325 325 325 324 324 323 320 315 312 311
323 315 321 321 313 322 322 312 312 315 315 313 314 316 320 320 314 313 316 315 315 315 315 315 316 316 316 316 316 316 316 316 316 316 316 316 316 316 316 316 316 316 315 315 315 315 315 314 315 315 316 317 317 318 318 318 319 317 317 318 318 323 325 324 328 330 328 326 327 329 330 331 331 330 330 330 328 327 328 327 326 326 325 326 325 325 326 325 325 325 324 324 323 321 316 313 311
325 319 322 321 316 320 320 314 311 312 315 313 313 317 321 319 314 315 316 316 315 315 315 315 315 317 317 317 316 316 316 316 316 316 316 316 316 316 317 316 316 316 316 316 316 315 316 315 315 316 316 317 318 319 320 319 320 319 317 317 318 320 323 324 326 328 329 330 329 328 329 330 329 329 329 331 330 329 329 329 328 326 325 325 325 325 326 326 325 325 324 323 323 321 317 313 311
321 319 321 321 319 318 320 319 312 310 314 316 315 316 320 319 314 315 316 315 315 314 315 316 316 317 317 317 317 317 317 316 317 316 316 316 316 316 316 316 316 316 316 316 317 316 317 317 316 316 316 317 318 319 321 321 321 321 320 319 319 320 321 324 325 325 327 330 329 328 332 332 331 330 329 330 331 330 329 329 328 327 326 324 324 325 325 326 326 324 324 323 322 321 319 315 312
318 318 318 317 316 316 319 321 315 312 315 316 317 317 320 320 314 314 316 315 314 314 315 315 316 316 316 316 316 317 317 316 316 315 316 316 316 316 316 317 317 317 317 316 317 317 316 317 317 317 317 317 318 320 322 323 323 323 321 320 321 321 320 322 324 323 324 326 325 324 327 330 331 331 330 331 332 332 330 329 329 328 327 325 324 325 324 324 325 325 324 323 322 320 319 317 313
319 321 323 323 321 319 319 320 313 312 317 318 318 318 319 320 316 314 315 314 312 313 314 314 315 315 315 315 315 315 315 315 314 315 316 316 316 317 316 316 317 316 317 317 317 317 316 316 317 317 317 317 319 321 323 324 324 323 322 321 321 320 320 321 322 322 322 324 325 324 324 326 328 328 328 330 331 331 329 327 328 328 327 326 325 325 324 323 324 326 325 323 321 320 318 315 313
318 321 325 324 323 320 317 317 312 309 316 319 316 318 318 319 318 313 312 313 310 311 312 314 316 316 315 315 315 315 314 314 314 314 315 316 316 316 316 316 317 317 317 317 317 317 317 317 317 317 317 317 318 320 321 322 322 322 321 320 318 317 319 321 321 321 321 321 324 326 326 328 330 330 329 328 328 329 328 327 329 330 328 326 326 325 324 322 324 326 324 323 322 321 319 317 314
318 320 323 320 319 320 315 315 316 311 314 319 316 318 319 318 317 312 311 312 311 311 312 313 314 314 315 315 313 313 314 313 314 314 314 315 315 316 316 316 316 317 317 317 317 317 317 317 317 317 317 318 318 319 320 321 321 321 320 319 318 317 317 319 319 320 321 321 321 323 325 327 328 331 332 330 328 328 329 330 330 329 329 328 326 326 325 322 323 325 324 322 321 320 320 319 317
322 320 321 321 318 319 316 315 318 314 314 321 321 321 320 317 317 313 310 311 313 313 312 312 313 313 314 313 312 312 313 314 314 315 315 314 315 315 316 316 316 317 317 317 317 317 317 317 317 317 317 317 318 319 320 321 321 321 321 320 319 318 317 318 319 319 320 321 321 321 322 324 326 328 330 329 327 326 328 328 324 324 329 329 327 326 325 322 321 323 324 323 323 321 317 317 317
323 321 320 321 318 319 319 317 318 315 313 319 321 319 317 316 317 316 311 310 312 312 313 313 313 314 315 314 312 313 314 315 315 315 315 315 316 316 316 316 317 317 317 317 317 317 317 317 317 317 317 317 318 319 320 320 321 321 321 321 320 319 319 318 318 319 319 320 320 321 320 321 322 323 324 325 326 325 325 324 320 324 329 330 328 326 326 324 320 321 324 323 324 322 318 317 317
319 327 330 327 323 322 320 317 317 316 314 317 317 316 323 324 323 325 318 310 310 312 313 315 315 315 316 315 314 315 316 315 316 315 315 315 316 317 317 317 317 317 318 318 318 318 318 317 318 317 317 318 318 318 319 319 320 320 320 320 320 319 319 318 317 317 317 317 318 320 320 321 321 321 322 322 323 323 323 325 326 327 330 329 328 327 327 326 323 322 324 323 323 323 322 321 319
315 324 330 327 330 327 321 320 319 318 316 314 312 315 331 335 327 328 325 315 313 312 309 312 315 314 312 315 315 316 316 316 316 316 315 316 316 317 317 318 318 318 318 318 318 318 318 318 318 318 318 318 318 318 318 319 319 319 319 319 318 318 317 317 316 315 314 315 315 316 318 320 322 323 324 323 324 323 323 327 329 329 329 329 328 328 326 325 324 324 324 323 323 323 323 321 320
315 318 320 323 331 327 322 319 316 319 316 310 311 314 322 326 322 322 321 318 318 315 309 310 313 312 310 312 314 316 317 316 316 317 317 317 318 318 318 318 318 318 318 318 318 318 318 318 318 318 318 317 318 318 318 318 318 318 318 318 317 317 316 315 315 314 314 313 313 314 316 318 320 322 323 324 326 326 324 325 328 328 328 328 328 328 325 323 325 325 324 324 323 323 322 321 321
315 316 319 325 329 326 326 324 320 322 316 314 319 319 316 319 320 320 318 319 321 321 320 315 310 310 311 312 315 316 316 317 318 318 318 318 318 318 318 318 318 318 318 318 318 318 317 318 317 317 317 317 317 317 317 317 317 317 316 316 316 316 315 315 314 314 313 313 312 312 313 315 318 320 322 323 325 326 326 326 327 328 328 328 328 328 324 324 325 324 324 324 323 322 322 321 321
318 315 319 324 326 327 330 331 329 322 313 318 324 316 315 323 326 323 316 316 320 322 325 317 309 311 313 313 316 317 317 318 319 318 318 318 318 318 318 318 318 317 318 317 317 318 317 317 317 317 317 317 316 316 316 316 316 316 315 315 315 315 314 314 314 313 313 313 312 312 312 312 314 316 318 320 322 323 325 326 326 327 328 327 327 327 326 325 324 324 323 323 322 321 322 321 318
316 312 317 319 322 326 328 329 327 317 313 323 325 313 313 321 329 327 316 315 321 323 324 315 308 312 314 315 316 317 318 319 318 318 318 318 318 318 318 318 318 318 317 317 317 317 317 317 317 317 316 316 316 316 316 316 315 315 315 315 315 314 314 314 314 313 313 313 313 312 312 311 312 313 315 316 318 319 320 322 323 324 325 325 325 326 325 323 321 322 322 322 322 322 322 320 317
311 317 322 320 324 327 328 329 322 313 317 325 321 314 313 315 325 329 319 318 322 321 323 318 311 312 315 316 317 317 319 318 318 318 317 318 318 318 318 318 318 318 317 318 317 317 317 317 317 316 316 316 316 316 315 315 315 315 315 315 314 314 314 314 313 313 313 313 313 313 312 312 311 311 312 314 315 314 315 318 320 322 323 323 323 322 321 321 320 321 322 322 323 323 323 320 317
314 325 325 320 324 325 325 329 321 315 323 322 316 315 313 313 324 331 323 321 320 317 321 323 315 313 316 318 318 319 319 317 317 318 317 318 318 318 318 318 317 318 318 317 317 317 317 317 317 317 317 316 316 316 315 315 315 315 315 314 314 314 314 314 313 313 313 313 313 312 312 312 312 311 311 311 312 313 315 317 318 319 320 320 320 320 321 322 322 322 323 324 323 323 322 319 317
319 324 323 319 322 320 321 327 321 319 321 315 314 317 314 315 321 323 323 322 320 313 313 317 313 312 317 320 319 318 318 317 317 318 318 318 318 317 317 317 317 317 317 317 317 317 318 317 318 317 317 317 316 316 316 315 315 315 315 314 314 314 313 313 313 313 313 313 313 312 312 312 312 311 310 310 310 311 314 316 317 317 317 318 321 322 323 324 323 323 323 323 323 323 321 319 318
319 319 321 321 321 317 320 324 317 317 320 314 313 316 317 319 317 317 321 317 314 310 308 312 313 312 316 319 320 318 317 317 317 318 318 317 317 317 317 317 317 317 317 317 317 317 318 318 317 317 318 317 317 317 316 316 316 315 314 314 314 314 313 313 313 313 313 312 312 312 312 312 311 311 311 310 310 311 313 316 318 318 318 320 323 323 323 323 322 322 321 322 322 322 321 319 319
317 317 317 318 324 324 323 324 320 320 322 316 313 316 323 324 315 314 314 309 309 312 311 312 313 314 315 317 320 319 317 317 317 317 317 317 317 316 317 317 316 317 317 317 317 317 317 317 317 317 317 317 317 317 317 317 316 315 315 315 314 314 314 313 313 313 313 313 312 312 312 311 311 311 311 310 310 310 312 316 318 319 318 320 322 323 322 322 321 320 321 321 322 321 320 319 319
316 314 313 315 322 325 320 315 317 319 319 317 315 319 326 322 314 313 310 308 311 311 311 313 314 314 314 315 319 319 318 318 317 318 317 316 317 316 316 316 316 317 317 317 317 317 317 317 317 317 317 317 317 317 317 317 317 316 316 315 315 314 314 314 313 313 312 312 312 312 311 311 311 311 310 310 309 309 311 314 317 318 318 318 319 321 321 321 320 320 321 321 322 321 319 319 319
316 314 317 318 316 323 320 310 310 313 314 317 316 319 322 317 314 317 314 314 315 312 310 312 314 315 314 314 317 319 319 317 317 318 317 317 317 316 316 316 316 317 316 317 317 316 316 316 316 317 316 316 317 317 317 317 317 317 316 316 315 314 314 314 313 313 312 312 312 311 311 311 310 310 310 310 309 309 311 312 315 317 318 318 318 319 320 320 320 321 321 320 321 321 320 319 319
319 319 319 315 310 318 321 315 317 318 316 318 316 315 319 316 316 321 316 314 317 317 315 312 312 313 313 314 316 318 318 316 317 317 316 317 317 316 317 316 316 317 316 316 317 316 317 316 316 316 316 317 317 317 317 316 317 316 316 316 315 314 314 314 313 313 312 312 312 311 311 311 310 310 310 309 309 309 310 311 313 314 316 317 318 318 319 320 319 319 319 319 320 320 319 319 318
317 318 314 315 317 319 317 315 320 320 316 321 321 314 314 314 317 322 317 316 321 320 317 316 314 312 311 312 314 315 316 316 317 317 316 317 316 316 316 316 316 316 316 317 317 317 317 316 317 317 317 317 317 317 317 317 316 316 316 316 315 315 314 313 313 313 312 312 312 311 311 310 310 309 309 309 309 308 309 310 312 314 315 314 315 315 316 317 317 317 317 319 319 319 319 318 318
312 312 310 316 323 321 318 315 316 317 315 319 322 319 317 316 317 320 315 318 323 321 321 319 312 310 311 312 312 313 313 315 317 317 317 317 316 316 316 316 316 316 316 316 316 316 317 317 317 317 317 317 317 317 317 316 317 316 316 315 315 315 314 313 313 312 312 312 312 311 311 310 310 310 309 308 308 308 308 309 312 314 315 314 314 315 316 316 316 317 317 318 318 318 318 318 317
314 316 314 316 317 317 318 316 314 318 319 319 319 318 322 323 318 316 315 318 319 318 322 318 310 311 314 313 313 314 313 314 316 317 317 317 316 316 316 316 315 315 316 316 316 316 316 316 317 316 317 317 316 316 316 316 317 316 316 316 315 314 314 313 313 313 313 312 312 311 311 310 310 310 309 309 308 308 308 309 311 313 315 315 315 316 316 316 316 317 317 317 317 317 318 318 317
315 316 316 317 316 316 317 315 313 315 316 320 319 314 321 328 320 316 319 319 313 310 311 312 311 314 315 314 316 316 315 315 316 316 317 316 316 316 316 315 315 315 316 316 316 316 316 316 317 316 317 317 316 316 316 317 317 316 317 316 315 315 314 314 313 313 313 312 312 312 311 311 310 310 310 309 308 308 307 309 311 313 315 316 316 315 315 316 317 317 317 316 317 317 317 318 317
Wind_Speed
3 2 2 1 2 0 3 4 1 3 4 2 1 1 2 2 1 2 3 1 1 1 2 6 9 12 8 5 7 7 6 5 5 4 4 8 21 24 21 21 20 19 19 18 18 16 16 14 12 11 9 7 6 5 5 5 6 7 9 11 12 13 13 13 12 13 13 13 14 14 14 14 18 19 16 14 13 10 7 9 9 9 9 10 12 14 16 16 16 16 16 16 16 16 16 18 19
3 2 1 0 2 1 2 4 1 3 5 2 2 3 2 2 1 5 6 4 4 8 13 15 14 12 9 10 9 7 5 2 5 7 12 21 26 23 22 22 20 19 18 17 17 16 16 14 12 11 9 8 6 5 4 5 5 6 8 10 11 12 12 13 12 12 12 13 13 13 13 13 16 17 15 14 13 10 8 8 9 9 9 10 12 15 16 16 16 16 16 16 16 16 17 18 19
3 2 1 1 1 2 1 3 2 2 4 2 4 3 1 1 5 7 6 6 12 16 15 12 10 8 6 6 5 3 2 2 10 15 20 26 26 25 23 21 19 18 17 16 16 16 15 13 12 11 10 8 6 5 5 5 5 5 7 9 10 11 12 12 12 12 11 12 12 12 12 12 14 16 15 13 12 9 7 8 9 10 9 10 13 15 15 16 16 16 15 15 15 16 17 18 18
2 0 2 1 1 2 3 3 2 4 3 4 3 4 2 4 7 6 5 11 16 12 6 5 6 5 3 4 4 4 4 6 15 19 24 26 24 25 24 21 19 17 17 16 15 15 14 13 12 11 10 8 7 5 5 5 5 5 7 8 9 10 11 11 11 11 11 11 11 11 11 11 12 14 14 13 12 9 7 9 10 11 10 11 14 15 15 15 16 16 16 15 15 16 17 18 18
2 1 2 1 1 1 3 3 2 4 4 5 2 5 4 6 7 5 6 10 10 5 3 4 4 4 5 5 3 2 5 9 16 20 23 25 23 24 23 22 20 18 17 15 15 14 13 12 11 10 9 9 7 5 5 5 5 5 6 8 9 9 9 10 9 9 10 10 10 10 10 10 10 11 11 11 11 9 9 10 11 11 10 12 14 15 15 15 15 15 15 15 16 16 17 17 17
3 3 2 0 1 2 2 1 2 2 5 5 4 5 5 7 8 7 8 7 6 5 6 5 5 6 6 5 4 6 9 9 15 20 23 24 22 22 22 21 19 18 16 15 15 14 13 12 11 10 9 9 8 6 5 5 5 5 6 7 8 8 8 8 8 8 9 9 9 10 9 9 9 9 9 9 9 9 11 11 10 11 12 13 14 15 15 15 15 14 15 14 15 16 16 17 17
4 3 1 1 3 3 2 3 4 3 3 5 4 5 7 9 9 8 7 7 5 6 6 6 10 8 4 4 6 8 8 8 15 20 23 22 22 22 21 21 19 18 17 16 15 14 13 12 11 11 10 9 9 8 6 5 5 6 6 7 7 7 8 7 7 8 8 9 9 9 9 9 9 9 9 9 9 10 11 12 12 13 13 14 14 14 15 14 14 13 14 14 14 15 15 16 17
5 3 1 2 2 4 4 3 3 3 1 3 4 5 10 12 12 9 5 5 3 4 7 10 11 5 2 4 4 7 7 10 14 19 22 21 22 23 21 20 19 18 17 16 15 14 14 13 12 11 10 10 9 8 7 6 5 6 6 7 7 7 7 7 7 7 8 8 9 9 9 9 9 9 9 9 11 12 14 14 14 14 13 13 14 14 14 13 12 11 12 12 12 13 14 15 16
6 2 1 2 2 3 3 2 2 2 2 4 3 5 12 13 12 8 4 3 3 7 10 13 7 1 5 5 4 8 9 11 13 19 22 20 23 22 20 20 19 19 17 16 15 14 14 13 13 11 10 10 9 8 7 6 5 6 6 6 6 6 6 6 7 7 7 8 8 9 9 9 9 9 10 11 13 15 17 16 14 13 13 13 13 12 12 12 11 10 11 12 12 13 13 14 15
5 2 2 3 2 3 3 1 1 1 3 4 3 7 12 14 11 7 6 4 5 8 8 9 4 3 9 6 5 10 12 12 14 20 21 20 22 20 20 20 19 18 18 17 16 15 14 14 13 12 11 10 10 9 8 7 6 6 6 5 5 5 5 6 6 6 7 7 7 8 8 8 8 9 10 12 14 15 16 15 13 13 13 13 12 11 11 11 11 11 11 13 13 13 13 13 13
4 2 3 4 3 2 2 3 3 4 4 4 3 7 13 15 10 6 5 5 6 7 7 7 4 9 10 5 6 10 14 14 16 20 20 21 21 20 20 20 19 17 17 17 16 16 15 15 14 13 12 11 11 10 9 8 7 6 5 5 5 5 5 5 6 6 6 7 7 7 7 8 8 9 11 12 13 14 14 14 14 13 13 12 11 11 11 11 11 11 11 12 13 12 12 12 12
2 1 4 4 2 3 4 3 3 5 5 4 2 7 13 14 8 6 6 6 7 5 7 6 6 11 7 2 7 11 15 16 18 19 19 21 22 20 20 20 20 17 16 15 15 16 16 15 15 14 13 12 11 11 10 9 8 7 6 6 5 5 5 5 6 6 6 6 6 6 6 7 8 9 10 11 12 13 13 14 14 13 12 11 11 11 11 11 11 10 10 11 12 12 11 11 11
4 2 5 2 3 3 3 4 2 3 4 4 4 6 12 12 8 11 10 7 7 6 6 6 9 11 4 2 7 13 16 17 20 21 19 21 22 22 21 20 20 19 17 15 15 16 16 16 15 15 14 13 12 11 11 10 9 8 7 6 6 5 5 5 6 6 7 6 6 5 6 7 8 9 10 11 11 12 13 13 13 12 12 11 10 11 11 11 11 10 9 10 11 12 12 11 10
5 5 5 2 2 2 4 3 1 2 3 6 5 8 13 10 7 13 12 7 7 7 5 6 11 9 3 4 7 15 18 19 23 22 23 23 22 22 21 21 20 20 18 17 16 16 16 16 16 16 16 15 14 13 12 11 10 10 9 7 7 6 6 6 6 6 6 6 5 5 6 7 8 9 9 10 11 12 12 12 12 11 10 10 9 10 10 10 10 9 8 9 11 11 12 11 10
5 5 4 3 2 1 4 2 2 5 5 5 6 11 13 8 7 13 14 8 7 9 7 8 12 5 3 6 6 15 19 20 23 22 26 26 23 22 21 22 21 21 20 19 18 17 16 16 17 17 17 17 15 14 13 12 12 11 11 9 8 7 7 6 6 6 6 6 6 6 6 8 9 10 10 10 11 12 12 11 10 10 9 8 8 9 10 9 9 8 8 9 10 11 11 11 10
5 4 4 3 2 2 3 2 3 3 5 5 9 12 10 5 9 14 13 8 7 11 10 8 14 6 4 7 3 13 20 19 22 23 27 28 26 24 22 22 22 21 20 20 19 18 18 17 18 18 18 18 16 15 14 14 13 13 12 11 10 8 8 7 7 6 5 5 6 6 7 8 9 10 10 10 10 10 10 9 9 8 8 7 7 8 9 8 8 8 7 8 9 10 10 9 9
5 4 4 2 2 3 4 4 5 3 5 6 10 15 9 2 9 13 11 7 8 14 11 8 15 11 6 7 4 12 21 19 21 23 27 29 28 26 24 24 23 23 22 21 21 20 20 19 19 19 19 19 18 16 16 15 14 14 14 13 12 10 10 9 8 7 6 5 6 6 7 8 9 10 11 10 10 9 9 8 7 7 7 7 7 8 8 8 7 7 7 7 8 9 9 9 9
4 3 4 1 3 4 5 7 8 4 4 8 12 16 11 5 10 12 8 6 9 12 11 9 13 12 7 8 5 13 21 20 21 22 26 29 28 27 26 24 23 24 23 23 22 22 22 21 20 20 20 20 19 18 17 17 16 16 16 15 14 12 11 10 9 8 7 6 6 6 7 8 9 9 10 11 10 9 9 8 7 6 6 6 6 8 8 7 7 6 7 6 7 8 8 8 8
3 3 3 3 5 5 5 7 8 4 2 9 13 14 13 9 12 14 7 4 8 9 8 9 12 12 10 9 8 15 21 20 20 21 24 26 26 27 25 24 24 23 23 21 21 23 23 22 21 21 21 21 21 20 19 18 18 17 17 17 16 14 13 12 11 9 8 7 7 6 6 8 9 9 10 11 11 10 9 8 7 6 5 6 6 7 7 7 7 6 6 6 6 7 8 8 8
2 4 3 5 7 4 4 5 8 7 4 9 13 11 10 10 14 13 8 5 5 7 10 10 12 14 12 10 11 16 21 21 20 20 22 23 24 24 23 23 22 21 20 19 20 22 23 24 23 22 22 22 22 21 21 20 19 19 19 18 18 17 15 14 12 11 10 9 8 7 7 8 9 10 11 11 11 10 10 9 8 7 6 6 6 6 6 7 7 6 5 5 5 6 7 8 8
2 5 3 5 6 2 4 4 4 8 7 11 13 9 7 10 13 12 9 6 3 11 17 17 15 16 15 13 13 17 21 21 21 21 22 23 23 22 22 20 19 18 18 20 21 21 21 23 24 23 23 23 23 23 22 22 21 21 20 20 20 19 17 16 15 13 12 11 10 9 8 9 10 10 10 11 11 10 10 9 8 8 7 7 7 7 6 6 6 6 5 5 5 5 7 8 9
4 2 2 4 6 2 3 2 1 7 9 11 12 9 7 9 11 13 13 8 7 14 19 19 16 15 16 15 15 17 20 22 22 22 23 23 23 23 21 20 19 19 20 22 22 21 20 22 23 24 24 24 24 24 23 23 23 22 22 22 21 21 19 18 17 16 14 13 13 11 11 10 11 11 11 11 11 10 9 9 9 9 8 8 8 8 7 7 6 6 5 5 5 6 7 9 10
3 1 1 4 5 2 1 1 2 6 12 15 13 9 8 9 8 12 16 15 12 9 12 17 17 14 16 17 17 18 20 22 22 22 21 21 22 21 20 20 20 20 21 21 20 21 20 21 23 24 24 24 25 24 24 24 24 24 23 22 23 22 21 20 19 18 17 16 15 14 12 12 12 13 13 12 11 11 10 9 9 9 9 9 9 9 9 8 7 7 6 5 6 7 8 9 11
3 2 2 3 4 3 2 2 4 7 12 16 13 9 7 9 6 7 15 21 16 9 8 12 17 17 16 17 19 19 19 20 20 19 19 20 19 19 20 20 21 22 22 22 21 21 22 21 23 24 24 24 25 25 25 25 25 25 24 23 23 23 22 22 21 19 19 18 17 16 15 13 13 14 14 14 13 12 11 10 10 10 11 11 11 10 10 10 9 8 7 6 7 8 9 10 12
3 4 4 5 3 4 3 4 6 7 9 12 11 8 6 7 4 4 14 19 16 14 11 9 13 17 18 18 19 19 19 20 19 20 20 20 21 21 23 23 23 25 25 24 23 23 23 23 24 24 24 24 25 26 26 26 26 26 26 25 24 24 24 23 22 21 20 20 19 19 17 16 15 15 16 16 15 13 12 11 11 11 12 12 12 11 11 11 11 10 8 8 8 9 10 12 14
3 6 7 6 3 4 5 5 7 8 8 10 8 4 4 5 2 7 14 16 15 15 14 12 11 14 17 18 18 19 20 20 20 21 21 21 23 24 24 24 25 25 25 25 24 24 23 24 25 26 25 24 25 26 27 26 27 27 26 26 25 25 25 24 23 23 22 21 21 20 19 18 16 16 17 18 17 15 13 12 12 12 12 12 13 12 12 12 12 11 10 9 9 10 11 12 15
7 10 10 7 4 3 3 4 6 7 7 7 7 3 3 3 1 6 8 8 13 17 17 16 13 13 14 15 16 18 19 19 20 21 22 22 23 24 23 24 25 24 25 25 25 24 24 25 25 26 27 26 26 27 27 26 27 28 28 27 27 25 25 24 24 23 23 23 22 21 21 19 18 18 18 19 20 17 15 13 13 13 13 13 13 13 13 13 13 13 11 9 9 10 11 12 14
13 14 10 6 4 2 1 3 4 5 5 3 6 3 2 1 2 10 8 4 8 15 18 19 18 16 15 15 15 17 19 18 20 23 24 24 23 22 22 23 23 23 24 23 23 25 25 25 25 26 27 27 27 27 27 27 26 28 28 26 28 28 25 25 25 25 24 24 23 23 22 21 20 20 20 20 20 19 16 14 14 14 13 14 14 14 14 15 15 15 13 11 10 11 12 13 14
12 11 5 6 7 3 1 1 2 2 3 2 5 2 3 3 8 15 10 6 6 10 16 19 20 20 20 19 18 18 19 18 21 24 24 23 22 22 22 21 22 23 23 23 24 25 25 25 26 26 27 27 27 27 27 27 26 25 27 27 26 27 26 25 27 27 24 23 24 23 23 23 22 22 22 21 20 20 18 16 16 15 15 14 14 15 15 16 17 17 15 13 12 13 14 15 16
7 4 4 3 6 4 2 1 1 2 2 2 4 2 6 7 15 16 8 8 8 9 14 18 20 21 22 22 21 21 20 21 23 24 23 23 23 23 23 21 22 24 24 24 25 25 25 25 25 26 26 27 26 27 27 26 25 24 29 30 25 26 28 27 28 27 25 25 25 24 23 24 24 23 23 22 21 20 19 18 18 17 17 16 15 16 16 16 17 18 17 15 14 14 15 16 17
3 2 3 3 1 4 5 1 2 4 1 1 5 2 7 8 12 10 9 12 13 14 16 17 19 20 22 23 23 24 23 23 23 23 22 22 22 23 23 22 22 24 24 25 25 25 25 25 25 26 26 26 26 26 26 25 25 24 28 30 25 27 31 29 27 28 27 27 27 26 26 25 24 24 23 23 22 21 20 19 19 18 19 18 17 16 17 17 17 18 18 18 18 17 17 19 19
3 3 1 3 3 5 7 1 5 5 1 0 5 2 7 8 9 3 5 10 12 16 17 16 18 18 20 22 23 24 23 23 24 23 22 22 22 23 22 22 22 23 24 24 25 25 25 25 25 26 25 25 25 25 25 24 24 24 25 27 26 27 29 27 27 30 29 27 26 28 29 28 27 25 24 25 24 23 24 23 21 19 19 19 18 17 18 19 18 19 20 20 21 20 21 22 22
4 3 2 2 3 3 5 2 4 3 2 1 2 2 3 5 6 1 2 2 4 10 14 14 16 17 18 20 22 23 23 23 24 24 23 22 22 22 21 21 21 22 22 22 23 24 24 25 26 26 25 25 25 24 25 25 24 25 25 26 26 26 28 27 27 30 30 29 29 30 31 30 29 27 26 27 28 25 26 27 25 22 20 18 18 18 19 21 21 21 22 22 23 22 23 24 24
2 2 2 3 3 3 2 3 3 1 2 1 1 2 6 7 8 7 4 5 6 10 14 14 15 17 19 20 22 23 23 24 24 23 21 21 20 20 21 20 20 20 20 20 21 22 22 23 25 25 26 25 25 25 24 25 25 25 26 27 27 27 28 28 28 28 29 32 33 32 35 34 30 29 28 29 32 29 27 28 28 27 24 21 19 18 19 22 24 24 24 24 24 23 23 23 24
5 3 3 2 2 3 3 3 3 1 2 2 1 2 10 11 13 18 19 14 14 17 19 20 22 23 24 25 26 26 26 27 27 24 21 21 21 20 20 20 20 20 19 20 19 20 21 22 24 24 26 25 25 25 25 25 26 26 27 28 29 30 29 29 30 29 29 32 32 31 34 35 33 32 31 31 34 33 29 30 31 30 28 25 22 21 21 23 26 27 26 26 26 24 23 23 24
9 7 5 5 4 4 5 4 4 1 3 3 5 5 8 11 11 17 24 19 15 20 22 25 27 29 30 31 32 31 31 31 29 26 24 23 23 22 22 21 22 21 20 21 20 21 21 22 23 24 25 26 26 27 27 27 28 28 29 30 31 32 32 31 31 30 30 31 32 30 30 33 36 35 33 34 35 34 33 33 33 33 31 29 26 25 23 23 26 28 28 27 27 27 27 25 25
8 6 5 4 4 3 3 2 5 1 4 4 4 5 8 11 11 16 26 21 15 21 25 28 32 33 35 36 37 35 34 32 28 26 26 25 25 25 24 23 23 23 22 22 22 22 21 21 23 24 24 25 26 28 28 29 30 30 31 31 32 32 32 32 32 31 31 31 32 32 30 33 37 36 35 34 34 37 40 39 37 36 34 32 30 27 25 23 25 29 30 30 29 29 30 28 27
6 6 6 2 2 3 2 1 4 3 1 3 3 3 9 11 11 16 23 17 16 23 24 28 33 34 37 38 36 33 31 30 26 25 24 23 24 23 23 22 22 22 21 22 22 21 21 22 22 22 23 25 26 27 29 30 30 30 31 30 30 31 31 32 32 31 31 32 32 33 33 33 35 35 35 34 34 39 43 41 38 39 38 34 31 29 27 25 26 31 33 31 30 31 32 32 32
5 4 6 3 2 2 3 3 4 5 0 3 5 5 9 11 10 15 21 18 22 28 24 26 30 32 38 36 30 27 26 25 22 19 17 17 18 18 18 18 17 18 18 19 20 19 20 21 21 21 22 23 25 26 28 29 30 30 31 31 30 30 31 31 32 32 32 33 33 34 35 35 36 38 40 40 40 41 41 41 40 42 41 36 32 30 29 27 28 33 35 32 32 34 34 34 34
4 4 5 3 2 1 1 3 4 4 2 1 3 5 8 8 6 12 21 23 25 27 24 28 30 32 37 32 25 24 23 22 18 13 11 10 12 12 12 13 13 14 14 15 16 16 17 17 17 18 19 21 23 25 27 29 30 30 30 31 31 31 31 32 33 34 34 34 35 35 35 36 37 39 41 41 41 40 41 44 46 45 43 39 35 33 32 32 32 36 39 37 34 36 37 35 34
1 3 6 4 3 4 3 1 2 3 4 3 4 5 7 5 5 7 11 11 14 17 17 22 24 24 26 24 20 19 19 18 15 10 8 7 8 8 8 9 9 10 9 10 10 12 13 14 15 16 17 18 20 22 25 27 29 30 30 31 32 33 33 34 35 35 36 35 36 37 37 37 36 37 38 38 37 37 40 47 50 48 44 40 37 36 34 34 35 37 40 39 34 36 38 37 38
1 3 6 7 7 7 3 2 4 4 4 4 4 3 6 5 5 7 6 6 8 10 10 18 23 17 13 11 9 9 10 9 8 6 5 5 5 6 6 6 6 6 5 5 6 8 10 11 13 14 15 16 18 20 22 24 27 28 29 30 31 33 34 35 35 35 35 35 35 36 37 38 37 37 38 36 35 36 38 43 45 43 42 40 38 36 32 34 36 37 40 40 35 36 40 41 42
2 4 5 7 7 8 6 4 4 1 2 3 4 2 5 7 5 8 7 8 11 12 11 21 28 19 10 8 8 7 4 1 1 1 3 4 5 5 5 5 5 5 5 5 5 6 7 9 10 12 14 15 16 18 20 22 24 26 28 29 30 32 33 33 33 33 34 35 35 35 36 37 38 39 39 37 37 38 37 39 41 41 43 44 41 36 35 40 42 40 41 41 36 38 43 46 46
3 3 6 8 8 8 6 6 4 2 3 4 4 3 2 6 7 7 6 7 10 12 12 18 22 17 10 8 6 4 2 3 4 5 6 7 7 8 8 8 7 7 6 5 5 5 6 8 8 10 12 13 14 16 17 19 21 23 25 27 29 30 31 31 31 32 33 34 35 36 36 37 39 40 40 40 41 41 40 40 41 42 43 43 41 41 44 46 44 41 41 40 39 41 46 50 50
3 3 7 7 7 7 5 6 4 1 1 4 4 2 2 6 7 5 4 5 9 11 11 12 16 15 8 3 2 4 6 6 8 9 9 10 10 10 10 9 8 7 6 5 5 5 5 6 7 8 9 11 13 14 16 18 20 22 23 25 27 27 28 28 30 31 32 33 35 35 36 37 38 39 40 41 43 45 45 44 43 42 41 41 40 42 45 43 40 41 43 42 42 44 48 52 52
5 7 8 6 6 6 5 5 4 3 2 5 5 2 2 5 7 4 2 3 7 9 8 9 13 13 4 3 5 8 10 10 11 11 11 11 11 11 10 9 8 6 5 3 2 2 3 4 6 7 8 9 11 13 15 17 18 21 22 23 24 25 25 27 28 30 31 32 33 34 35 36 36 38 38 40 42 45 48 50 49 48 45 44 42 41 42 41 41 42 44 44 44 44 49 55 53
11 8 7 7 6 5 4 3 4 3 3 6 6 3 1 3 6 4 3 4 6 5 6 8 9 9 4 7 9 12 14 13 12 11 10 10 10 10 9 8 6 5 4 3 1 0 1 2 3 4 5 7 9 11 13 15 17 19 21 21 22 22 24 25 27 29 30 31 31 32 32 34 35 37 37 38 40 40 43 47 51 52 51 50 49 46 45 45 45 43 42 45 47 47 51 55 51
9 5 5 5 4 4 4 4 3 1 5 6 5 2 2 4 6 5 5 7 6 5 5 7 8 9 6 11 14 17 17 14 13 12 12 12 11 9 8 7 7 7 6 5 4 4 3 3 3 4 5 6 7 9 11 13 15 17 19 20 20 21 22 24 26 27 28 29 30 30 30 32 33 35 37 38 38 38 39 41 45 48 49 48 47 45 44 46 47 45 42 45 48 49 52 52 49
5 5 6 5 2 2 2 3 0 3 6 4 3 1 2 6 7 8 10 10 8 8 8 9 9 8 7 15 18 19 18 14 14 15 14 13 11 9 9 9 9 9 8 8 8 7 6 6 5 6 6 7 8 10 11 12 13 15 16 18 19 20 21 23 25 26 27 28 29 29 29 30 31 32 34 35 36 37 38 39 41 42 42 43 44 43 43 45 45 44 43 45 48 49 50 49 47
4 5 5 4 3 2 2 4 2 4 4 3 3 2 3 5 5 8 13 10 7 8 11 12 12 8 4 13 18 19 17 15 16 16 14 12 11 10 10 9 9 9 9 9 9 9 8 8 8 8 8 8 10 11 12 13 13 13 15 16 17 19 21 22 24 25 26 27 28 28 28 28 28 29 31 32 33 35 38 40 41 40 39 40 44 46 45 43 41 42 43 45 48 49 48 46 44
3 3 5 5 5 5 4 4 3 4 3 3 4 2 3 3 3 7 12 13 13 13 14 12 12 10 2 8 14 17 16 15 17 16 14 12 11 10 9 8 8 8 8 8 7 8 9 9 9 9 9 9 11 12 14 15 15 15 16 16 17 18 19 21 23 24 25 26 27 28 28 27 27 27 28 29 30 34 38 41 41 41 40 40 43 45 44 42 42 44 45 46 47 47 46 44 42
2 2 5 3 4 5 3 3 5 3 1 2 2 3 5 4 5 9 10 12 14 15 14 10 9 10 6 5 10 15 14 14 16 16 15 14 14 14 13 12 11 9 8 6 5 5 6 6 7 8 10 10 11 12 14 16 17 17 18 18 18 18 19 21 22 23 24 25 27 27 27 27 26 26 26 27 28 31 35 40 41 41 41 41 42 43 43 43 45 46 46 47 47 45 44 44 42
2 3 3 5 4 7 5 2 1 3 1 3 1 4 5 4 6 9 7 8 11 12 12 12 10 8 9 8 11 16 14 12 16 16 16 17 17 16 15 14 13 11 10 8 6 5 4 3 3 7 9 11 13 14 15 17 17 18 18 19 20 20 21 21 22 22 23 24 26 27 27 27 27 26 26 26 27 29 32 37 40 42 42 42 43 44 45 46 46 46 46 47 48 47 46 45 44
5 3 5 4 2 4 4 2 2 4 3 4 1 5 5 2 4 7 5 5 10 9 10 14 14 11 9 8 12 16 13 13 16 17 17 17 16 15 14 13 11 11 9 8 7 7 7 6 6 8 10 13 15 16 16 17 18 19 19 19 20 21 22 22 22 22 23 24 26 26 27 28 28 27 27 26 26 29 32 34 36 39 41 42 44 46 46 45 46 47 47 48 50 48 48 46 44
4 5 4 4 3 2 2 2 2 1 3 4 4 4 4 4 5 5 2 6 8 9 9 11 14 13 9 7 10 12 13 16 17 18 18 17 15 14 12 12 11 10 9 7 7 7 8 8 9 10 11 13 15 16 17 17 18 19 20 20 21 22 23 23 23 23 24 25 26 26 26 27 27 28 28 27 26 28 31 33 34 36 37 38 40 42 43 44 47 49 48 50 50 47 47 45 44
4 3 3 3 2 4 3 3 4 3 3 3 4 4 3 6 6 6 9 9 8 8 7 7 12 14 10 8 10 11 13 17 18 18 19 17 14 11 10 11 11 10 9 8 7 6 8 9 10 10 11 12 13 15 16 17 18 20 21 21 21 22 23 23 23 24 25 26 26 26 26 26 27 28 29 28 27 28 30 32 34 36 38 38 37 40 42 43 45 48 50 53 50 46 45 44 46
3 3 4 2 1 2 2 1 2 4 4 3 2 4 6 6 4 8 10 9 8 8 6 7 11 12 9 6 5 5 7 12 17 19 18 16 13 7 7 10 10 10 9 8 7 6 7 9 10 10 10 11 12 14 15 17 19 20 21 22 22 23 23 23 23 24 26 26 26 27 27 26 27 28 28 29 28 27 28 31 34 36 39 40 39 40 43 44 46 50 52 52 49 48 47 45 47
6 6 7 7 4 4 3 2 1 2 3 4 3 4 8 6 4 7 7 7 7 7 7 8 8 6 3 1 3 3 4 10 16 18 17 16 13 6 4 9 10 10 10 9 8 8 8 10 11 12 12 13 14 15 16 18 20 22 23 23 22 23 22 22 23 24 25 26 26 27 27 27 28 28 28 28 28 28 28 31 34 36 37 40 40 41 44 46 48 50 52 51 50 50 50 48 48
Wind_Direction
221 235 299 315 354 75 352 10 85 6 64 92 342 140 221 201 202 174 145 160 127 10 160 159 138 142 146 127 146 117 102 153 162 143 177 158 146 158 162 160 165 164 163 162 162 161 162 159 158 157 155 153 138 122 106 91 79 81 95 94 87 86 87 87 85 83 80 78 76 75 77 89 100 99 98 100 101 99 94 88 77 81 96 102 102 94 90 88 86 85 83 81 79 79 77 82 87
211 243 310 83 21 11 316 26 79 343 53 106 258 171 248 335 142 189 183 192 156 121 109 114 116 117 106 104 107 85 71 140 156 134 137 143 147 156 162 165 166 165 165 164 164 164 165 162 161 158 154 151 134 127 113 101 84 83 100 101 94 89 90 87 83 82 79 77 75 75 76 86 103 105 103 106 106 103 100 90 81 86 96 102 97 90 89 88 89 87 86 85 83 81 80 84 89
214 249 13 120 24 15 22 42 74 78 85 174 260 241 272 146 190 209 197 154 133 123 106 100 94 86 82 86 73 71 74 129 141 131 138 148 153 157 162 167 164 167 169 166 165 164 166 164 163 158 155 149 134 130 119 114 98 93 106 106 99 93 94 91 84 81 79 80 76 75 76 82 103 113 110 111 113 118 115 96 92 96 97 99 95 90 90 89 90 89 87 87 86 86 87 88 91
204 145 78 113 56 29 64 49 120 122 135 196 251 261 239 185 199 215 171 135 134 127 105 92 71 53 53 92 90 94 103 136 144 142 149 156 158 159 161 165 165 170 170 168 167 165 168 167 164 162 157 148 138 133 125 119 109 105 113 114 106 98 96 93 87 81 79 80 79 76 76 81 101 115 116 117 117 122 127 110 102 103 102 101 98 94 93 91 91 91 89 87 86 88 91 91 93
181 123 126 156 17 52 88 67 109 116 188 184 174 255 242 203 195 190 156 142 154 161 152 122 82 83 90 100 94 118 140 147 152 153 155 156 158 160 161 163 167 171 171 171 169 168 171 170 167 165 159 151 145 138 133 125 120 117 119 123 115 106 100 95 89 82 79 79 81 79 78 83 97 112 122 130 123 118 127 122 111 109 111 109 102 96 94 92 90 91 91 91 91 92 92 92 95
147 127 114 49 65 96 118 127 158 177 217 166 152 240 229 206 193 164 142 131 147 159 157 141 132 129 97 77 76 129 141 148 158 158 155 155 160 163 164 164 168 172 173 174 174 173 174 175 171 168 167 160 152 145 142 135 127 124 127 132 126 116 106 99 93 86 82 79 80 81 81 84 92 101 116 135 137 131 127 125 120 119 119 111 102 96 94 92 90 89 89 90 93 97 96 96 100
137 130 84 90 69 46 105 149 199 210 203 168 175 207 195 199 189 158 134 123 118 143 161 154 140 127 101 91 100 133 139 152 160 159 157 159 164 167 168 166 170 173 174 177 177 176 176 178 175 173 175 169 159 154 150 143 135 130 135 138 134 125 115 106 96 90 85 79 76 80 83 83 88 92 101 117 131 135 128 127 128 127 121 110 101 96 94 91 90 87 87 87 89 96 100 100 102
128 128 68 109 52 27 90 115 224 204 151 218 225 195 183 185 177 160 136 139 137 146 150 153 146 112 141 143 136 149 137 151 162 163 163 165 168 173 174 169 171 173 176 179 179 180 180 180 179 178 179 177 167 162 159 152 143 137 141 143 139 132 123 113 100 92 87 80 73 76 83 85 88 91 97 106 117 125 125 129 130 127 119 109 103 98 95 92 90 88 90 89 86 92 98 99 100
129 132 41 88 77 30 52 36 264 223 275 255 238 194 181 178 172 158 131 125 137 144 145 157 163 139 176 168 159 158 142 151 169 170 168 170 173 176 176 174 173 174 177 179 181 182 182 184 184 182 183 184 175 171 169 160 154 145 147 147 142 139 130 120 106 94 91 87 77 77 85 90 94 96 102 109 115 122 125 129 128 123 116 110 107 102 99 96 94 92 93 94 90 90 94 97 101
127 110 95 78 81 40 10 318 270 242 271 263 231 198 179 175 174 159 141 131 145 151 156 170 188 166 166 167 157 161 154 157 174 175 174 175 177 178 177 177 177 177 179 179 182 185 185 188 189 187 189 190 184 181 179 172 167 157 154 152 145 144 139 130 116 104 101 98 89 84 90 99 105 107 110 115 120 124 126 128 127 123 117 112 108 104 101 98 97 96 95 97 97 94 95 99 104
114 64 106 76 72 95 205 231 274 274 283 310 279 209 183 176 168 153 141 136 154 156 161 171 181 153 150 164 166 165 161 163 176 178 180 182 182 181 179 180 180 181 183 181 184 188 188 191 193 193 193 194 193 190 187 184 180 172 166 160 150 148 146 142 132 120 112 110 104 94 97 107 114 117 119 122 125 127 128 129 129 125 119 114 109 103 100 101 100 98 97 99 103 102 101 103 108
136 16 87 86 132 187 201 182 257 287 312 323 255 203 186 179 166 159 153 149 164 170 175 181 186 156 135 179 178 174 169 164 175 185 189 187 187 184 182 183 183 184 186 187 189 190 191 193 196 196 197 199 200 198 195 192 191 188 178 171 161 153 156 154 146 135 124 118 117 108 107 117 123 127 125 127 129 130 131 132 131 126 121 115 109 103 101 103 101 98 98 100 105 107 108 111 114
172 138 99 101 161 163 164 151 245 313 326 269 214 193 185 184 182 178 163 155 166 170 189 199 185 162 139 205 188 183 173 166 174 189 197 193 191 186 186 188 188 188 186 192 195 194 194 196 200 200 200 202 204 204 202 198 197 198 192 185 175 165 165 161 153 145 136 127 125 123 122 128 133 135 132 132 134 135 135 133 131 127 122 116 109 106 105 104 102 100 99 102 105 108 113 117 123
170 148 118 111 94 122 149 136 234 179 257 250 208 189 184 190 200 182 165 159 181 177 186 191 180 167 162 188 198 189 173 170 176 187 196 196 197 190 190 194 195 195 191 194 197 201 201 200 204 204 204 203 206 207 206 205 203 204 202 197 187 179 172 167 162 153 146 137 131 134 136 142 144 143 139 137 138 139 137 134 131 128 123 118 111 109 109 106 103 102 100 105 109 109 113 116 123
150 136 103 99 74 110 168 168 165 159 235 224 185 186 179 196 214 189 176 169 185 180 171 174 182 186 200 186 204 193 178 177 179 184 192 195 200 198 198 198 201 203 199 197 200 208 209 207 207 208 209 207 208 209 209 208 208 209 207 206 199 189 181 177 175 165 158 148 138 139 144 152 153 152 149 143 142 141 140 137 134 132 129 122 117 114 112 107 102 101 100 105 113 113 112 112 117
130 122 79 85 119 181 183 175 133 140 246 200 171 176 167 203 201 190 190 180 174 174 175 181 190 212 228 190 177 187 182 182 181 182 189 194 199 202 204 203 205 208 205 202 204 209 212 213 211 212 213 212 212 211 212 211 210 211 211 211 206 199 193 188 187 181 172 160 148 145 150 160 162 161 161 157 151 149 147 144 142 139 136 130 126 122 115 109 105 101 100 104 114 118 114 111 112
127 101 69 74 158 195 191 176 170 174 231 202 172 171 156 173 183 187 199 196 178 173 185 196 195 213 231 195 159 181 186 186 184 183 188 193 199 203 206 206 207 210 210 209 209 210 212 214 214 215 215 214 215 213 214 213 213 212 213 214 210 206 202 199 199 195 187 174 163 154 157 165 170 171 171 171 167 163 160 156 154 148 141 137 134 133 124 115 109 104 104 107 118 123 121 115 113
134 101 96 171 183 199 190 178 191 168 185 194 182 177 163 152 172 182 192 198 181 174 194 201 198 212 210 195 196 191 190 190 188 187 189 193 199 203 206 208 209 212 215 214 213 214 215 215 216 217 217 216 216 215 215 215 214 214 215 216 215 212 208 207 207 206 201 189 179 170 168 172 176 180 180 181 181 178 174 173 171 166 150 140 140 140 132 124 117 110 110 113 123 130 127 121 119
117 103 115 212 202 206 196 182 194 179 182 188 182 182 173 167 169 172 185 197 177 174 201 202 204 209 197 194 203 195 193 195 194 194 195 196 200 203 206 209 211 214 216 215 215 216 217 218 218 218 219 219 218 218 217 217 216 216 218 219 220 218 213 212 212 212 210 202 194 190 184 181 180 184 186 187 189 189 186 187 188 183 166 147 148 148 141 134 127 120 120 123 129 135 134 128 127
119 111 131 237 211 208 222 214 208 204 204 177 179 184 174 171 170 173 184 180 185 202 203 200 207 206 196 193 192 192 196 198 198 199 201 203 205 207 209 211 214 215 215 216 218 219 219 220 221 221 221 221 222 221 220 219 218 218 219 221 223 222 219 216 215 214 215 213 205 201 200 194 188 186 188 191 193 196 196 197 199 195 182 170 166 162 151 144 140 135 131 136 142 144 142 137 137
158 133 174 226 190 178 219 227 217 212 213 186 176 170 172 177 177 182 168 145 248 232 212 209 215 208 198 193 189 191 197 200 201 203 206 208 211 213 216 218 221 222 219 220 222 222 221 221 222 223 223 223 224 224 223 221 220 221 221 222 224 225 224 221 219 216 215 218 214 207 207 205 199 192 192 193 195 200 203 204 206 203 197 194 188 181 172 160 154 152 147 151 158 158 153 147 148
139 154 221 183 160 149 208 213 218 210 199 180 170 160 176 176 184 197 175 165 229 233 224 221 224 220 211 207 199 194 198 203 206 207 209 212 216 219 223 224 226 227 226 225 225 225 224 224 224 225 225 225 225 225 226 225 223 224 225 224 225 226 226 225 223 221 218 219 220 216 211 211 207 200 196 194 195 199 203 206 209 209 208 207 204 198 192 183 170 165 168 169 172 174 168 157 156
141 222 254 161 180 187 150 182 190 186 170 168 173 172 174 166 189 209 197 208 223 237 243 229 229 231 224 219 210 204 203 207 211 215 216 216 219 223 227 228 229 230 232 233 232 230 229 227 227 228 227 226 227 227 227 227 227 228 229 227 226 227 228 227 226 225 224 222 223 224 220 217 213 208 201 195 196 198 200 205 210 211 210 210 211 208 203 199 190 180 182 189 188 187 182 168 163
128 169 196 157 191 191 99 115 156 171 172 174 178 178 180 175 185 213 217 228 231 242 259 236 232 232 228 224 219 219 216 215 220 223 223 224 226 227 230 233 234 235 237 239 239 236 235 233 232 232 230 227 227 228 228 228 229 229 230 231 228 227 229 229 230 229 228 226 226 227 226 223 220 216 208 202 201 201 202 205 210 214 213 211 213 213 210 207 203 198 196 202 202 197 193 177 169
111 155 176 141 139 166 103 95 141 155 168 171 172 182 203 194 188 231 234 236 234 236 243 242 236 229 229 228 227 227 224 224 227 226 227 228 229 229 230 233 235 237 239 240 241 241 240 238 237 238 236 231 228 228 230 230 231 230 229 231 230 228 229 230 230 231 230 229 228 228 228 227 224 221 216 212 210 209 210 210 211 214 214 213 214 216 215 212 210 210 209 208 208 205 202 185 174
182 142 149 135 103 148 124 108 130 140 153 161 164 183 219 204 241 265 252 248 239 234 232 234 234 226 227 229 231 232 232 233 232 230 229 229 229 230 231 232 234 238 240 241 242 243 242 240 240 241 241 238 234 231 230 230 231 233 231 232 233 229 230 233 231 231 232 231 231 231 231 230 227 225 224 221 217 215 215 214 213 212 214 215 216 218 217 216 214 216 218 217 214 208 207 194 180
162 123 112 104 90 137 149 129 125 133 138 156 167 179 233 197 220 258 258 255 235 229 228 228 229 225 224 228 234 236 238 239 238 237 233 230 230 232 233 232 236 239 240 241 242 243 243 242 241 241 243 242 240 236 234 233 230 232 234 233 234 234 231 233 234 232 231 232 233 234 233 232 229 226 228 226 223 221 216 214 213 210 212 214 216 219 220 219 216 219 223 224 221 213 209 200 188
142 124 99 45 49 108 170 150 137 136 122 145 159 158 250 153 199 236 236 247 232 227 228 229 231 232 232 236 240 239 239 238 239 239 235 234 234 236 238 238 242 242 242 245 245 244 243 244 243 242 243 243 242 239 237 236 232 234 238 234 232 236 233 230 234 235 234 235 235 236 236 235 232 228 228 226 225 226 220 213 214 213 214 216 218 220 221 222 219 220 223 223 222 218 212 203 194
128 119 103 356 11 40 276 161 166 169 127 138 132 137 268 217 228 237 233 231 231 225 229 232 234 238 240 243 243 241 241 237 235 237 237 237 239 242 244 246 248 247 248 249 247 246 246 246 246 244 245 244 244 242 239 237 236 235 237 240 235 235 238 231 230 236 238 239 240 238 237 237 236 233 229 225 226 229 226 218 214 215 217 219 223 225 222 223 223 223 224 224 224 221 214 207 199
113 81 100 36 14 355 284 101 189 173 135 160 133 223 269 251 241 237 223 224 233 233 232 232 236 240 243 244 243 243 243 239 239 242 243 243 244 246 248 250 250 251 252 250 249 250 249 248 247 246 246 246 245 244 242 238 236 230 229 239 239 233 240 237 232 236 235 237 243 242 241 241 240 238 233 227 228 231 231 226 222 219 219 222 225 228 227 225 226 227 227 228 228 225 216 211 206
92 58 59 60 101 272 299 2 167 153 185 219 120 195 264 272 263 246 229 241 251 249 242 237 238 240 243 243 244 247 247 245 248 250 250 249 250 250 251 251 250 252 253 252 254 254 253 251 249 248 247 248 247 244 245 241 238 233 228 236 236 228 235 239 236 238 236 235 238 241 244 245 244 242 238 232 231 234 236 235 233 226 219 220 223 227 229 227 227 229 231 232 232 226 215 212 211
41 99 329 349 159 259 309 294 177 159 204 186 110 208 268 275 283 286 235 250 252 246 245 242 241 242 244 246 246 250 252 252 253 254 253 253 253 252 254 254 253 253 253 254 256 256 255 254 251 250 248 248 248 246 247 246 242 240 236 238 238 231 235 237 232 235 242 242 238 238 240 241 245 246 242 239 235 234 235 236 240 238 224 217 219 224 231 231 229 230 231 232 233 227 215 211 209
359 103 182 242 165 259 314 286 222 176 142 18 97 219 262 288 288 12 95 282 256 245 247 244 245 248 248 249 250 252 255 254 254 254 255 256 258 260 261 261 259 256 254 254 254 255 256 256 254 253 252 250 249 248 248 248 247 245 243 241 241 238 238 238 233 232 238 242 243 243 237 234 240 244 242 242 241 238 235 234 238 241 235 225 221 224 232 236 234 233 232 229 231 229 221 214 209
287 59 129 208 182 189 279 295 266 130 126 257 18 242 248 275 284 268 269 295 289 275 269 264 261 258 255 253 253 253 254 255 255 255 258 261 264 267 269 269 265 259 256 254 253 255 255 256 257 256 256 254 251 250 248 250 249 248 248 244 243 241 239 238 237 235 233 234 239 241 238 235 237 243 242 240 241 241 238 237 237 237 238 237 234 231 236 241 238 234 234 230 227 229 228 222 215
189 179 147 196 202 194 235 256 239 93 90 219 163 264 262 270 279 272 270 277 281 280 278 277 273 268 264 259 256 255 254 256 258 258 260 263 265 268 270 269 266 262 259 258 256 255 255 255 256 255 255 254 252 251 249 249 249 248 247 244 242 242 241 238 237 239 237 236 239 237 235 236 238 241 243 241 237 237 241 243 240 236 235 238 240 239 241 245 241 235 234 233 227 225 229 228 223
171 175 144 153 169 223 239 250 266 158 127 219 213 226 264 272 279 278 275 278 281 280 279 277 274 270 268 264 261 259 256 259 263 264 261 260 261 263 265 266 264 262 260 259 257 256 256 256 255 254 253 252 251 250 247 246 246 245 244 242 241 241 240 239 238 240 239 239 242 240 235 236 238 238 239 241 239 239 246 248 244 238 236 237 237 240 250 252 245 239 236 234 229 223 222 223 224
138 131 112 139 159 235 249 274 307 48 149 248 241 235 264 268 273 276 277 283 282 275 274 272 270 269 268 266 265 263 261 264 268 268 264 262 261 261 262 262 260 259 258 257 256 257 258 258 257 257 255 253 250 249 249 248 247 247 246 244 243 243 241 241 241 241 241 240 241 241 237 237 241 240 236 237 239 243 246 243 241 239 236 236 235 241 253 253 246 242 237 232 230 227 222 219 219
101 128 126 119 165 225 252 251 314 358 168 268 349 304 266 261 266 272 276 282 271 262 260 263 266 268 268 268 268 269 270 272 271 266 263 261 261 261 261 260 258 258 258 257 259 260 261 260 261 261 259 256 254 253 253 253 253 253 253 252 250 248 246 245 247 247 246 244 242 242 240 237 239 241 240 240 240 245 246 241 240 242 239 235 234 239 245 246 244 242 238 232 229 229 228 225 219
86 116 126 134 189 240 292 299 328 10 68 268 355 343 273 261 261 266 266 261 261 262 257 261 266 268 269 270 272 276 278 277 276 269 262 257 257 258 257 256 256 257 258 258 259 259 259 260 263 263 262 260 258 256 256 256 256 256 256 256 254 253 252 251 252 253 252 250 247 244 242 240 236 236 239 242 244 245 244 244 245 246 241 234 234 238 239 243 244 241 239 238 236 230 227 227 225
88 107 128 166 231 142 239 288 328 8 62 262 346 324 282 276 275 267 261 256 262 268 265 265 264 265 269 271 273 277 279 281 284 281 267 251 248 248 248 250 252 254 255 256 256 257 259 262 266 267 266 265 262 259 258 257 256 256 256 257 257 256 256 256 254 254 254 253 251 248 246 243 241 239 239 241 243 241 242 245 245 244 238 232 236 238 239 247 248 242 238 236 238 234 227 226 228
68 137 138 161 200 172 190 274 341 357 15 39 29 330 293 302 315 283 270 266 268 271 271 270 266 266 271 274 276 279 284 286 286 281 267 250 242 239 238 239 243 247 251 254 256 259 263 267 269 270 269 268 265 262 259 258 257 257 256 257 257 257 257 256 254 254 253 252 250 248 247 246 244 245 246 246 243 239 244 247 245 243 236 231 236 238 242 251 250 248 241 235 239 241 235 233 230
272 216 173 172 173 164 162 56 58 34 350 350 26 346 287 314 316 274 286 326 299 286 291 282 277 278 279 281 296 304 300 290 280 273 255 238 227 223 223 221 224 229 228 233 243 251 258 264 266 268 269 268 267 264 260 259 258 257 258 258 258 260 260 259 259 259 259 258 257 251 248 246 244 244 247 250 246 242 246 248 245 243 238 236 239 239 245 251 249 252 247 238 242 247 241 236 234
195 233 167 147 132 129 135 113 88 107 248 309 41 126 264 310 296 265 294 325 304 298 298 280 276 281 291 297 316 324 317 294 233 201 183 184 181 180 177 168 167 167 169 187 212 236 251 260 264 266 268 268 267 266 263 261 260 260 261 261 263 263 264 265 265 265 264 264 264 259 251 246 244 243 244 245 245 244 245 246 246 245 243 242 241 242 252 255 249 251 247 242 246 249 242 238 238
200 220 125 121 116 129 144 115 102 200 231 326 14 121 236 293 264 264 314 324 300 290 284 276 277 286 298 297 302 299 215 146 122 125 134 143 144 140 139 139 141 147 158 174 196 225 247 258 267 269 272 273 271 269 267 264 264 264 264 264 265 265 266 268 268 267 266 265 264 263 258 251 245 242 241 241 241 242 243 244 245 244 243 243 244 250 256 253 248 246 243 244 248 248 245 243 239
228 186 116 119 120 126 122 99 96 18 4 313 315 129 189 273 272 296 341 314 287 278 271 277 290 299 303 283 224 158 153 143 126 123 127 130 130 130 131 135 141 152 164 176 197 227 252 266 277 280 281 282 279 276 273 269 267 266 265 265 266 267 268 268 268 267 266 265 264 263 262 259 253 246 242 240 239 240 240 242 244 244 244 246 249 252 251 250 250 247 244 247 249 248 248 244 237
167 137 94 78 75 81 80 88 98 44 5 256 253 189 193 267 285 309 349 272 261 267 272 280 298 307 311 130 147 146 140 136 132 126 125 125 127 131 132 136 146 152 156 164 194 254 284 293 297 299 295 290 285 282 278 275 271 268 267 266 267 268 268 267 267 267 266 266 265 264 263 262 260 255 250 245 242 241 239 239 240 242 244 247 249 249 249 252 253 247 247 252 251 252 251 244 236
136 115 73 62 36 37 47 51 82 63 297 255 246 228 167 271 281 259 214 220 223 247 292 299 328 356 65 120 131 139 136 133 133 128 127 128 129 132 132 133 137 127 116 114 100 35 342 336 334 329 317 303 295 288 282 279 275 273 272 271 271 272 271 269 268 268 268 269 268 267 266 264 263 261 257 251 247 244 240 238 237 239 243 247 249 250 252 251 247 243 248 251 250 252 252 244 237
117 90 86 86 0 12 24 358 45 121 255 260 264 254 157 222 260 252 242 254 232 215 267 283 325 8 72 119 125 131 133 133 136 137 135 135 134 135 136 133 130 122 116 117 113 105 91 66 31 11 354 333 317 303 294 288 281 279 278 277 277 277 275 273 272 272 272 273 273 272 271 267 264 262 259 254 249 243 239 237 236 238 242 245 246 247 248 249 247 245 250 254 252 252 251 243 236
79 92 104 97 355 9 350 309 347 221 243 271 285 242 206 233 246 259 267 269 245 220 230 254 291 338 80 122 129 131 132 134 139 141 139 139 141 143 146 144 136 126 123 126 123 113 98 78 55 34 14 356 342 328 316 304 295 290 287 284 282 281 279 277 276 277 276 276 276 275 273 271 267 262 259 255 249 241 236 236 236 237 240 242 243 244 247 250 250 248 252 255 254 253 250 243 238
133 135 130 129 127 111 260 264 277 261 257 297 295 249 260 269 261 252 253 260 264 255 255 264 284 311 77 130 140 139 137 138 141 141 139 141 146 149 150 149 141 131 128 130 129 120 105 87 69 48 26 8 354 344 336 325 314 304 294 289 285 282 281 280 280 279 279 279 278 276 276 273 269 264 260 256 249 241 236 236 238 239 240 243 245 246 248 249 249 251 253 255 255 253 249 243 240
177 160 131 146 157 157 205 216 211 246 272 305 298 256 201 223 277 258 257 276 288 284 282 279 275 278 233 147 155 155 148 142 142 140 139 139 135 130 127 123 123 124 125 129 132 128 115 98 77 52 28 10 354 346 342 337 329 317 304 296 291 286 284 282 281 281 281 281 280 280 279 277 273 269 264 259 251 241 235 235 238 241 241 244 247 248 247 246 248 250 252 254 256 254 246 240 241
233 118 107 160 183 143 140 182 177 178 316 302 261 238 214 216 280 280 283 299 293 284 290 287 265 252 235 197 177 171 160 149 148 145 141 134 118 107 101 94 90 89 93 100 112 125 123 107 78 41 18 4 352 341 335 334 333 325 315 308 301 295 290 286 285 284 284 284 284 283 282 281 279 275 269 263 254 243 236 233 236 241 242 243 247 247 247 247 249 251 251 252 252 249 243 241 242
170 126 171 211 171 114 113 212 54 80 250 271 229 253 288 323 295 291 307 305 294 291 291 282 266 240 230 226 190 177 172 163 161 156 146 132 116 107 99 90 81 76 75 74 74 80 88 90 48 13 1 353 345 337 329 326 326 326 323 315 307 302 298 294 291 288 287 286 284 284 285 284 283 280 275 267 257 247 239 235 235 238 242 245 247 247 247 247 248 251 254 254 251 244 239 240 243
125 174 206 189 122 88 109 183 1 44 244 275 271 245 286 322 277 315 345 273 276 290 286 281 277 256 234 216 184 176 177 181 179 168 152 137 120 107 94 81 70 65 66 65 61 55 52 42 15 360 352 345 338 332 326 321 321 322 322 318 312 305 300 298 296 292 289 286 284 285 286 286 286 285 282 274 262 249 242 238 238 238 240 244 247 248 247 246 249 252 252 254 255 248 241 240 243
123 174 168 122 141 172 101 149 179 134 234 278 299 276 264 207 230 301 295 219 237 259 267 275 273 264 246 210 191 188 192 198 192 172 156 143 124 104 82 64 53 48 46 43 40 38 38 25 8 358 348 341 335 329 326 321 319 319 318 317 314 309 304 300 298 296 291 288 287 287 287 287 288 287 285 280 267 253 243 238 238 240 243 246 248 249 247 247 250 252 252 253 254 248 243 244 246
61 103 106 85 134 166 161 154 166 170 195 250 307 321 268 225 215 213 222 222 214 228 249 262 265 270 267 241 233 227 213 206 193 171 159 151 133 106 68 47 39 35 29 17 6 12 20 11 2 355 344 337 332 329 326 321 318 316 314 314 313 311 308 303 299 297 294 292 291 289 287 288 288 286 286 284 272 257 245 238 235 238 244 248 251 251 251 251 252 253 255 254 250 244 241 246 252
124 131 158 184 83 111 158 142 123 140 159 192 277 297 267 248 207 192 217 234 220 211 230 265 278 291 295 272 249 234 212 201 190 178 169 163 153 124 53 28 19 19 17 7 356 354 358 356 351 344 336 330 324 321 319 315 313 312 310 311 311 310 309 307 302 298 297 297 295 293 291 290 289 287 286 287 278 262 248 239 235 236 241 245 249 251 253 255 256 256 257 255 249 242 240 248 254
169 180 189 184 158 125 153 233 230 121 148 169 177 257 264 252 205 200 213 222 222 213 221 258 286 307 324 77 106 111 158 180 187 187 181 175 169 153 36 8 0 0 359 356 352 345 339 337 333 325 320 315 311 310 309 308 307 305 306 307 307 308 310 309 306 301 299 299 299 299 297 294 292 291 289 288 284 271 256 245 238 237 241 243 246 249 251 254 257 259 259 254 249 244 244 250 253